Precipitable_Water
1.11 1.30 1.37 1.14 0.68 0.60 0.41 0.44 0.50 0.42 0.46 0.56 0.64 0.71 0.69 0.79 0.77 0.72 1.41 1.66 1.71 1.67 1.81 1.87 1.89 1.76 1.64 1.69 1.71 1.76 1.75 1.70 1.61 1.51 1.35 1.27 1.23 1.08 1.03 1.00 0.95 0.91 0.77 0.63 0.60 0.58 0.56 0.68 0.73
1.05 1.18 1.14 0.94 0.55 0.38 0.37 0.53 0.47 0.47 0.51 0.60 0.61 0.67 0.73 0.74 0.95 1.12 1.26 1.61 1.79 1.76 1.86 1.89 1.91 1.81 1.76 1.77 1.80 1.76 1.74 1.66 1.55 1.42 1.30 1.24 1.13 1.00 0.95 0.89 0.82 0.74 0.67 0.60 0.54 0.52 0.51 0.61 0.68
1.04 1.10 0.85 0.71 0.52 0.32 0.36 0.50 0.52 0.55 0.55 0.50 0.51 0.79 0.81 0.80 1.06 1.15 1.39 1.60 1.73 1.80 1.90 1.89 1.90 1.86 1.79 1.78 1.81 1.76 1.72 1.62 1.55 1.39 1.23 1.14 0.97 0.89 0.84 0.77 0.70 0.68 0.61 0.55 0.52 0.49 0.50 0.56 0.62
1.01 0.97 0.89 0.56 0.39 0.44 0.47 0.51 0.56 0.55 0.54 0.53 0.49 0.49 0.81 1.03 1.11 1.29 1.45 1.61 1.60 1.79 1.89 1.93 1.89 1.89 1.83 1.78 1.77 1.73 1.69 1.63 1.51 1.27 1.07 0.93 0.84 0.82 0.72 0.69 0.68 0.61 0.59 0.54 0.51 0.50 0.50 0.50 0.56
1.09 0.85 0.56 0.49 0.42 0.50 0.53 0.56 0.56 0.51 0.47 0.44 0.46 0.42 0.57 0.97 1.29 1.36 1.44 1.55 1.60 1.69 1.85 1.87 1.90 1.86 1.86 1.78 1.71 1.68 1.67 1.62 1.48 1.17 0.99 0.84 0.79 0.73 0.68 0.67 0.63 0.61 0.60 0.54 0.50 0.47 0.48 0.48 0.55
0.76 0.80 0.47 0.37 0.40 0.51 0.55 0.60 0.57 0.56 0.55 0.52 0.51 0.48 0.62 1.02 1.08 1.30 1.47 1.53 1.67 1.69 1.76 1.82 1.89 1.89 1.81 1.75 1.72 1.69 1.66 1.63 1.52 1.19 0.91 0.79 0.75 0.70 0.67 0.63 0.63 0.61 0.59 0.54 0.50 0.46 0.47 0.48 0.55
0.65 0.64 0.44 0.43 0.43 0.48 0.52 0.65 0.59 0.61 0.60 0.57 0.71 0.59 0.74 1.00 1.15 1.30 1.36 1.55 1.68 1.78 1.77 1.80 1.82 1.88 1.81 1.80 1.77 1.67 1.67 1.61 1.47 1.12 0.84 0.76 0.73 0.70 0.65 0.63 0.64 0.61 0.57 0.52 0.49 0.47 0.47 0.49 0.56
0.78 0.69 0.52 0.49 0.43 0.40 0.60 0.67 0.76 0.71 0.65 0.80 0.77 0.60 0.64 0.99 1.26 1.29 1.32 1.37 1.66 1.80 1.80 1.74 1.77 1.85 1.88 1.82 1.74 1.67 1.64 1.54 1.38 1.04 0.78 0.74 0.72 0.69 0.66 0.63 0.62 0.61 0.56 0.52 0.48 0.47 0.46 0.47 0.54
0.86 0.63 0.44 0.42 0.44 0.50 0.68 0.62 0.75 0.81 0.74 0.77 0.80 0.78 0.94 1.19 1.33 1.30 1.26 1.30 1.61 1.74 1.78 1.74 1.74 1.87 1.88 1.79 1.72 1.68 1.59 1.48 1.34 1.10 0.73 0.73 0.70 0.66 0.65 0.61 0.60 0.59 0.55 0.50 0.46 0.44 0.40 0.40 0.47
0.72 0.56 0.50 0.44 0.60 0.61 0.67 0.66 0.73 0.73 0.73 0.74 0.80 0.91 1.03 1.22 1.26 1.21 1.21 1.25 1.62 1.62 1.74 1.75 1.76 1.80 1.82 1.78 1.70 1.65 1.53 1.38 1.16 0.98 0.69 0.67 0.66 0.61 0.59 0.58 0.58 0.58 0.50 0.44 0.42 0.40 0.35 0.35 0.37
0.57 0.58 0.59 0.67 0.69 0.71 0.69 0.68 0.76 0.70 0.65 0.73 0.75 0.86 0.96 1.05 1.17 1.23 1.23 1.24 1.33 1.55 1.65 1.72 1.75 1.76 1.77 1.71 1.67 1.59 1.44 1.23 0.97 0.83 0.66 0.65 0.64 0.58 0.54 0.54 0.55 0.51 0.46 0.42 0.38 0.32 0.29 0.29 0.31
0.51 0.54 0.67 0.70 0.79 0.78 0.66 0.72 0.70 0.76 0.72 0.84 0.92 0.99 1.01 1.00 1.14 1.19 1.25 1.28 1.30 1.41 1.62 1.74 1.74 1.74 1.72 1.71 1.67 1.49 1.34 1.10 0.97 0.75 0.64 0.61 0.57 0.52 0.48 0.47 0.47 0.42 0.38 0.33 0.30 0.29 0.29 0.29 0.30
0.53 0.53 0.63 0.75 0.77 0.79 0.82 0.71 0.70 0.69 0.80 0.88 0.95 1.03 0.98 0.99 1.07 1.10 1.23 1.33 1.36 1.38 1.51 1.73 1.73 1.71 1.69 1.66 1.64 1.46 1.31 1.15 0.96 0.78 0.63 0.61 0.54 0.48 0.45 0.44 0.41 0.37 0.33 0.31 0.29 0.29 0.29 0.28 0.29
0.49 0.53 0.58 0.65 0.73 0.79 0.77 0.69 0.74 0.68 0.82 0.82 0.88 0.93 1.00 1.00 1.03 1.08 1.13 1.20 1.35 1.45 1.58 1.64 1.71 1.70 1.70 1.62 1.61 1.46 1.33 1.20 1.00 0.82 0.66 0.57 0.53 0.48 0.42 0.36 0.36 0.35 0.33 0.31 0.29 0.28 0.29 0.28 0.29
0.45 0.43 0.50 0.54 0.57 0.66 0.79 0.67 0.58 0.71 0.79 0.77 0.81 0.88 0.94 0.96 1.00 0.93 0.99 1.07 1.30 1.41 1.52 1.60 1.65 1.74 1.66 1.63 1.63 1.49 1.40 1.23 1.00 0.86 0.69 0.56 0.55 0.48 0.37 0.35 0.36 0.35 0.33 0.31 0.30 0.30 0.30 0.29 0.31
0.32 0.39 0.35 0.42 0.54 0.62 0.69 0.49 0.62 0.75 0.75 0.73 0.78 0.82 0.87 0.91 0.92 0.92 0.99 1.09 1.23 1.32 1.41 1.52 1.61 1.65 1.61 1.63 1.57 1.53 1.43 1.25 1.06 0.93 0.74 0.57 0.54 0.47 0.35 0.35 0.37 0.36 0.34 0.33 0.32 0.32 0.30 0.29 0.30
0.28 0.23 0.29 0.38 0.48 0.55 0.63 0.54 0.69 0.77 0.73 0.72 0.76 0.77 0.81 0.84 0.90 0.93 0.98 1.06 1.19 1.33 1.39 1.47 1.53 1.59 1.57 1.57 1.60 1.53 1.43 1.26 1.14 1.02 0.78 0.58 0.53 0.46 0.38 0.38 0.38 0.37 0.35 0.34 0.34 0.33 0.32 0.31 0.32
0.19 0.20 0.26 0.30 0.43 0.49 0.53 0.53 0.66 0.79 0.75 0.70 0.77 0.76 0.79 0.79 0.80 0.88 0.96 1.07 1.18 1.31 1.41 1.46 1.50 1.51 1.52 1.53 1.52 1.50 1.45 1.39 1.18 1.02 0.81 0.58 0.50 0.46 0.40 0.40 0.39 0.38 0.35 0.35 0.34 0.33 0.34 0.33 0.33
0.23 0.25 0.22 0.29 0.43 0.45 0.49 0.53 0.61 0.72 0.75 0.72 0.73 0.74 0.78 0.78 0.83 0.89 0.95 1.02 1.10 1.23 1.31 1.44 1.43 1.47 1.46 1.42 1.37 1.32 1.26 1.21 1.11 1.00 0.87 0.64 0.50 0.45 0.40 0.40 0.40 0.39 0.36 0.34 0.35 0.34 0.34 0.33 0.33
0.20 0.22 0.25 0.27 0.41 0.47 0.46 0.49 0.56 0.66 0.74 0.71 0.70 0.73 0.73 0.80 0.79 0.85 0.90 0.97 1.03 1.09 1.21 1.32 1.38 1.43 1.46 1.42 1.40 1.39 1.40 1.15 1.10 1.03 0.91 0.71 0.53 0.44 0.41 0.41 0.40 0.39 0.36 0.35 0.35 0.35 0.33 0.33 0.33
0.19 0.20 0.21 0.27 0.34 0.48 0.46 0.43 0.50 0.56 0.72 0.75 0.75 0.75 0.78 0.75 0.74 0.80 0.84 0.89 0.98 1.04 1.14 1.24 1.30 1.38 1.40 1.44 1.42 1.29 1.22 1.16 1.03 1.02 0.95 0.80 0.58 0.45 0.43 0.42 0.41 0.39 0.37 0.35 0.35 0.35 0.33 0.30 0.32
0.18 0.23 0.24 0.28 0.32 0.26 0.45 0.29 0.43 0.49 0.56 0.66 0.71 0.70 0.72 0.77 0.76 0.77 0.81 0.85 0.91 1.00 1.16 1.20 1.26 1.32 1.32 1.33 1.31 1.23 1.05 0.99 1.04 0.96 0.91 0.82 0.64 0.52 0.44 0.41 0.40 0.39 0.39 0.37 0.36 0.36 0.34 0.33 0.31
0.17 0.20 0.23 0.27 0.29 0.32 0.40 0.33 0.39 0.51 0.49 0.55 0.64 0.67 0.68 0.75 0.74 0.72 0.75 0.79 0.85 0.98 1.11 1.20 1.24 1.26 1.28 1.26 1.19 1.11 1.05 1.06 1.01 0.93 0.86 0.83 0.81 0.55 0.45 0.41 0.39 0.39 0.39 0.38 0.37 0.36 0.36 0.35 0.33
0.36 0.31 0.27 0.30 0.30 0.23 0.34 0.34 0.34 0.39 0.42 0.51 0.63 0.63 0.69 0.70 0.70 0.71 0.74 0.80 0.83 0.97 1.12 1.20 1.21 1.25 1.27 1.25 1.19 1.07 0.99 0.99 0.93 0.92 0.89 0.89 0.78 0.62 0.50 0.42 0.39 0.39 0.39 0.38 0.38 0.38 0.37 0.36 0.35
0.29 0.25 0.16 0.18 0.21 0.17 0.28 0.33 0.38 0.50 0.51 0.53 0.61 0.62 0.62 0.64 0.69 0.70 0.72 0.75 0.79 0.92 1.08 1.17 1.18 1.17 1.24 1.23 1.17 1.11 1.11 1.11 0.94 0.88 0.83 0.84 0.76 0.69 0.56 0.47 0.41 0.39 0.38 0.38 0.39 0.38 0.38 0.37 0.36
0.25 0.22 0.19 0.14 0.17 0.19 0.31 0.25 0.31 0.48 0.55 0.60 0.62 0.61 0.60 0.60 0.61 0.65 0.69 0.72 0.72 0.82 0.91 1.02 1.12 1.13 1.21 1.21 1.17 1.12 1.11 1.04 0.94 0.90 0.84 0.80 0.87 0.76 0.68 0.58 0.50 0.44 0.41 0.40 0.39 0.39 0.38 0.38 0.37
0.25 0.22 0.30 0.25 0.30 0.19 0.28 0.33 0.43 0.47 0.48 0.51 0.53 0.58 0.56 0.56 0.57 0.55 0.58 0.64 0.70 0.82 0.89 0.94 1.01 1.12 1.19 1.21 1.17 1.12 1.08 1.05 0.93 0.84 0.84 0.81 0.74 0.87 0.79 0.65 0.54 0.50 0.48 0.45 0.42 0.40 0.38 0.39 0.38
0.34 0.39 0.25 0.27 0.19 0.17 0.24 0.26 0.26 0.36 0.40 0.43 0.45 0.49 0.51 0.54 0.54 0.52 0.52 0.55 0.62 0.71 0.83 1.01 0.96 1.02 1.09 1.16 1.17 1.07 1.06 1.05 0.97 0.87 0.78 0.78 0.77 0.77 0.81 0.75 0.64 0.54 0.50 0.49 0.47 0.43 0.41 0.40 0.38
0.26 0.27 0.30 0.32 0.28 0.20 0.17 0.21 0.32 0.34 0.37 0.39 0.40 0.44 0.47 0.49 0.50 0.51 0.52 0.53 0.56 0.64 0.74 0.84 0.96 1.02 1.04 1.09 1.13 1.08 1.04 1.04 0.93 0.80 0.74 0.73 0.73 0.71 0.71 0.76 0.70 0.61 0.54 0.51 0.48 0.46 0.46 0.41 0.40
0.26 0.24 0.26 0.23 0.23 0.26 0.20 0.17 0.29 0.32 0.34 0.36 0.40 0.40 0.43 0.45 0.48 0.49 0.51 0.51 0.52 0.57 0.64 0.75 0.86 1.03 1.08 1.09 1.08 1.04 0.97 0.93 0.87 0.82 0.77 0.76 0.70 0.69 0.69 0.75 0.76 0.68 0.60 0.54 0.51 0.50 0.48 0.45 0.42
Wind_Speed
33 29 26 26 25 27 32 27 24 22 25 27 28 30 33 35 32 27 24 27 27 30 33 34 33 32 32 30 29 27 25 24 22 20 19 17 15 14 13 12 10 8 6 6 6 6 6 7 7
33 31 29 28 33 32 32 27 29 26 23 23 28 33 32 36 34 33 25 26 27 32 33 35 35 33 33 32 30 28 26 25 23 21 19 18 16 15 14 12 10 8 7 6 6 6 6 7 7
34 34 32 31 37 42 33 25 29 27 28 27 29 31 34 33 34 36 32 29 30 35 35 36 37 35 34 33 32 30 28 25 23 21 20 19 17 16 14 13 11 9 8 7 7 7 7 8 7
34 34 34 38 45 42 37 26 27 26 28 30 32 34 37 35 34 34 35 31 30 33 37 37 37 37 36 35 34 31 29 26 24 22 20 19 18 17 15 14 12 10 9 8 8 8 8 8 7
36 34 38 43 50 42 32 35 28 27 25 28 30 36 36 36 34 34 37 37 35 33 36 37 38 38 38 37 35 33 30 28 26 22 21 20 19 18 16 15 13 12 10 9 9 8 8 8 7
38 39 37 47 47 42 36 31 31 30 27 26 28 34 35 36 38 36 37 36 38 37 38 36 39 39 39 38 37 34 31 30 27 24 22 21 20 19 17 16 14 13 11 10 9 9 8 8 6
46 42 49 44 41 41 37 34 32 30 31 28 24 29 33 35 36 38 37 38 38 40 39 40 40 40 40 40 37 35 33 31 28 25 23 22 21 20 18 17 15 14 12 11 10 9 8 7 6
45 44 47 49 45 46 34 33 34 32 32 30 31 26 32 34 34 35 37 39 41 42 42 43 41 42 42 40 38 36 34 32 29 26 24 24 22 21 19 18 16 15 13 12 11 9 9 7 6
49 41 51 54 49 40 32 33 33 31 31 30 31 29 30 33 34 35 35 36 43 43 42 45 43 42 43 41 39 36 35 32 30 27 26 25 23 22 21 19 18 16 14 12 11 10 9 7 6
47 47 57 53 44 39 38 34 32 29 29 29 31 31 30 33 35 36 36 34 35 42 43 45 45 44 44 42 41 38 35 33 30 29 27 26 24 23 22 20 18 17 14 13 12 10 9 7 6
56 49 56 38 47 44 36 34 34 33 35 30 29 31 34 34 35 36 38 39 35 39 44 46 45 46 45 44 42 39 36 34 32 30 28 27 26 25 23 22 20 18 16 14 12 11 9 8 6
54 57 52 49 44 36 43 36 34 34 29 29 28 32 35 34 35 33 36 39 40 41 47 48 47 47 47 45 43 40 38 35 33 31 30 29 27 26 24 23 21 19 16 14 13 11 10 8 7
53 61 54 46 46 46 38 39 40 37 32 30 27 28 33 35 33 32 33 36 37 43 34 46 51 48 48 46 44 42 39 36 34 33 32 31 29 27 26 24 22 20 18 16 14 12 10 8 7
49 50 58 52 49 38 39 42 40 39 35 33 32 30 32 33 31 29 30 34 36 41 30 39 39 45 47 47 45 43 40 37 36 34 33 32 30 29 27 25 23 21 19 17 15 13 11 9 8
52 51 50 56 56 47 41 40 48 36 35 36 35 35 34 33 31 31 31 30 37 41 37 39 41 43 45 47 45 43 42 39 37 36 35 33 32 30 29 27 24 22 20 18 15 14 11 10 8
48 52 51 54 54 52 42 42 48 45 38 37 37 35 36 36 34 31 29 30 33 39 38 37 43 38 41 45 45 43 42 39 38 38 37 34 33 32 30 28 26 24 22 19 17 15 12 11 9
43 47 60 51 51 53 46 38 35 43 44 39 38 37 37 36 35 32 30 28 30 36 41 40 39 39 40 41 42 42 42 40 39 39 38 36 34 33 32 29 28 26 23 21 19 16 14 12 11
40 49 52 55 52 50 53 42 34 43 45 42 40 37 38 36 37 34 32 30 29 34 38 43 42 43 42 41 42 41 41 40 40 39 39 37 36 35 33 31 29 27 25 23 21 18 16 14 13
37 41 51 51 51 46 49 55 40 32 45 46 43 41 39 38 36 35 33 32 31 31 35 40 42 42 43 42 43 41 41 39 39 39 39 38 37 36 35 33 31 29 27 25 22 20 18 15 14
46 41 38 49 44 47 44 49 52 41 36 45 45 44 42 39 37 37 35 33 32 33 32 38 42 42 45 44 43 41 40 40 39 39 40 39 38 37 36 35 33 31 29 26 25 23 19 18 17
45 43 45 32 48 45 41 43 46 48 36 36 45 45 42 41 39 39 37 34 32 33 33 37 42 45 44 44 41 41 41 40 39 40 40 40 39 39 37 36 35 33 31 29 27 25 22 20 19
37 42 40 40 39 43 44 32 43 46 47 42 37 45 47 44 41 39 37 35 34 31 33 36 40 44 44 44 44 43 41 40 40 39 39 39 40 39 38 37 36 35 33 31 29 27 25 22 21
33 41 39 42 36 41 34 34 28 37 37 44 42 45 46 44 41 40 38 36 34 32 34 38 40 43 43 43 43 43 41 40 38 39 39 39 40 41 40 39 38 36 35 33 31 29 27 25 23
25 25 32 33 36 43 35 29 32 39 41 38 42 44 44 42 41 40 38 35 35 32 33 40 41 43 44 43 42 42 42 40 38 39 39 39 40 40 40 40 39 38 37 35 33 31 29 27 25
31 21 26 27 28 37 47 28 14 26 32 36 38 35 35 35 36 37 36 35 35 32 28 39 41 43 44 43 42 43 44 42 40 39 38 39 39 41 41 40 40 39 38 37 35 33 31 29 27
30 26 20 23 24 31 40 34 18 18 21 23 24 26 28 29 28 28 30 34 37 36 32 34 40 43 45 44 42 41 42 41 41 41 40 39 41 41 41 42 41 41 40 39 37 35 33 31 29
24 25 23 15 16 27 32 30 16 18 18 18 20 22 24 26 27 27 28 29 32 36 37 34 34 43 46 45 44 42 42 43 42 41 42 42 41 42 43 43 42 41 41 40 38 36 34 32 31
17 21 18 16 17 22 24 27 26 17 18 18 17 19 21 24 25 26 27 28 30 32 33 36 33 38 44 46 46 45 44 44 43 41 41 42 42 42 43 44 43 42 42 41 40 38 36 34 32
14 12 11 12 12 19 23 27 24 23 20 18 17 18 20 21 24 25 26 27 29 31 31 32 33 34 38 42 43 43 42 43 43 42 40 41 41 43 43 43 44 44 43 42 41 39 38 36 34
15 10 9 10 11 13 20 27 25 24 22 21 19 18 20 20 22 24 25 26 26 28 30 30 31 32 37 39 41 42 43 44 44 44 42 41 41 42 42 43 45 45 45 44 43 41 40 38 37
Wind_Direction
233 230 226 229 235 241 242 241 238 237 235 232 226 224 224 219 217 219 222 212 208 205 201 200 198 198 196 194 193 191 189 189 188 187 186 184 184 180 177 174 171 167 159 147 135 126 117 111 101
230 227 228 233 237 241 241 237 236 233 233 231 228 228 227 225 223 221 219 213 210 204 201 201 199 199 196 195 193 191 191 190 190 190 190 187 184 181 179 179 177 172 162 153 143 134 125 120 110
228 226 228 234 238 240 240 236 237 239 238 235 229 225 224 225 223 219 219 216 212 209 205 202 200 199 197 196 194 192 191 191 191 190 189 188 186 184 184 183 178 173 165 157 147 139 132 125 117
225 226 232 235 238 240 239 236 237 240 241 238 231 230 227 223 220 217 216 213 204 205 203 202 200 200 199 197 194 193 192 192 191 190 191 190 187 187 185 182 180 175 167 160 152 145 138 130 123
223 226 232 236 240 239 240 236 235 236 239 235 230 231 228 220 220 221 214 212 207 205 203 203 202 201 199 197 195 195 194 193 192 192 192 191 189 187 185 183 180 175 170 163 157 151 144 136 129
225 226 232 235 238 238 237 232 232 235 237 236 233 231 227 223 218 216 209 210 212 210 206 203 202 199 198 196 195 196 195 194 194 194 194 192 190 188 186 184 181 177 173 168 162 157 150 142 136
226 227 233 238 239 237 232 229 229 232 234 233 233 231 225 218 214 211 213 214 213 211 207 204 202 201 198 195 196 196 195 195 196 196 194 192 190 189 187 185 182 179 176 172 167 163 158 152 145
228 230 234 236 235 237 230 227 227 229 237 235 228 232 221 217 215 214 211 215 217 211 207 204 202 199 197 196 197 196 196 196 196 196 195 192 191 189 188 186 184 181 179 176 173 170 166 162 159
223 228 231 234 230 232 227 227 229 234 233 230 228 229 221 217 214 210 211 215 210 207 203 203 202 200 198 197 197 197 197 197 197 197 196 193 193 191 189 187 186 184 181 180 179 178 175 174 171
221 229 227 232 234 232 231 225 225 226 224 228 229 229 219 211 210 208 208 206 198 201 202 202 202 201 200 200 198 197 197 198 199 198 197 195 193 192 190 188 187 186 183 182 182 184 182 182 182
228 230 230 230 234 229 227 223 225 223 223 226 226 224 219 213 211 214 213 212 207 207 206 204 204 202 202 201 199 199 199 200 201 198 197 196 195 194 192 191 190 188 188 187 189 189 189 189 193
231 231 230 230 230 226 222 220 222 219 226 224 224 219 212 208 212 211 213 212 211 209 214 207 204 203 203 202 201 199 200 201 201 198 198 198 197 196 195 194 193 191 191 192 192 193 195 197 201
230 230 228 229 230 231 225 224 225 227 226 219 217 210 208 208 208 210 209 207 209 207 208 204 206 204 202 202 202 201 202 203 201 200 200 200 199 198 197 196 195 195 195 195 194 197 199 204 209
229 231 230 230 227 228 230 223 223 224 218 218 213 210 206 206 208 208 207 208 207 205 206 205 199 200 200 202 203 204 204 204 203 202 202 201 200 199 199 198 199 199 198 198 198 202 206 211 213
230 232 230 227 225 226 222 229 223 218 213 215 213 213 209 210 208 210 211 209 208 209 212 208 203 201 201 202 203 205 206 205 204 204 203 202 202 201 201 201 202 201 201 200 202 205 209 214 218
225 226 227 224 223 224 224 230 226 217 213 212 213 215 213 213 212 212 212 211 210 209 210 208 207 199 203 202 203 206 206 206 205 205 205 204 204 203 203 204 205 203 203 204 206 210 214 219 226
222 221 222 222 219 219 215 227 222 214 214 215 215 216 214 213 214 214 214 214 214 212 207 208 207 204 204 204 203 205 207 207 206 206 206 205 205 205 205 206 207 206 207 208 210 214 218 223 230
221 218 220 220 215 218 216 222 225 216 216 216 214 214 213 213 214 215 216 217 217 214 213 216 212 212 209 207 206 206 206 207 207 208 208 206 207 207 207 208 208 209 210 212 215 218 223 228 233
222 222 220 219 215 217 217 219 219 224 216 215 212 213 213 215 215 216 218 219 218 217 216 212 212 212 207 206 204 205 207 208 208 209 209 208 209 209 209 210 210 211 214 215 217 221 224 231 236
217 221 221 219 215 214 217 220 220 219 221 214 215 214 215 215 216 216 217 218 219 219 217 213 211 207 207 208 207 210 210 211 211 210 211 210 211 211 211 212 213 214 216 217 220 224 226 236 237
214 214 214 215 209 215 214 221 219 217 222 222 217 215 216 215 214 216 217 219 220 220 219 215 210 208 209 207 210 210 211 210 211 212 213 212 213 213 213 214 215 217 219 221 223 226 230 237 240
212 208 211 210 210 210 209 220 214 214 218 223 225 216 215 216 216 214 216 218 220 223 221 213 208 208 211 210 211 211 210 211 215 214 214 214 215 215 216 217 218 219 221 224 225 229 233 238 242
211 205 209 209 216 206 209 217 212 206 213 216 225 217 215 214 214 214 216 218 220 222 219 213 210 209 210 210 211 211 213 213 214 214 214 216 217 217 218 219 220 221 224 226 227 230 234 239 242
181 191 196 202 211 210 203 209 215 210 212 210 218 218 212 212 215 216 216 218 220 221 221 213 211 210 210 211 212 213 213 212 214 215 217 218 218 219 220 221 222 223 225 227 229 232 235 239 244
193 181 184 200 199 207 205 206 221 212 212 207 212 210 207 214 215 215 215 218 217 217 221 209 212 213 214 214 214 215 216 216 217 217 218 219 220 221 222 222 224 225 226 228 229 232 236 239 243
187 184 187 191 198 196 194 205 217 198 189 195 199 199 202 207 212 215 218 220 218 217 214 213 219 218 215 215 215 217 216 218 220 221 221 224 224 224 224 224 225 226 227 228 230 233 236 239 243
181 189 196 201 207 189 193 190 185 195 189 190 190 193 200 206 211 217 219 221 222 221 219 218 219 218 216 217 218 218 220 221 222 225 227 228 228 227 226 226 227 227 228 229 231 234 236 239 242
178 179 184 193 194 182 187 192 205 201 200 194 193 195 203 209 212 214 217 220 222 222 222 221 222 218 218 219 221 223 225 224 223 227 227 228 228 227 226 227 229 229 229 230 232 234 236 239 242
177 177 198 196 196 195 191 197 200 198 201 197 196 202 207 211 215 217 219 221 223 223 222 224 225 220 217 216 218 218 220 223 224 228 228 227 227 227 228 229 229 230 230 231 233 235 237 239 242
163 187 191 191 180 199 199 200 205 206 207 208 206 207 208 211 215 217 220 223 225 226 225 225 226 224 220 219 220 224 226 228 227 227 227 228 228 228 230 231 231 231 231 232 233 236 238 239 242